Whidbey Island, WA

6:41 PM PST on November 21, 2017 (GMT -0800)
Whidbey Island Naval Air Station

Weather History for KNUW - January, 2013

Change the Weather History Date:

Sunday, January 20, 2013

  Actual Average Record
Temperature  
Mean Temperature 35 °F -  
Max Temperature 44 °F 45 °F 57 °F (2005)
Min Temperature 26 °F 35 °F 26 °F (2013)
Degree Days  
Heating Degree Days 30    
Moisture  
Dew Point 31 °F    
Average Humidity 89    
Maximum Humidity 100    
Minimum Humidity 76    
Precipitation  
Precipitation 0.01 in - - ()
Sea Level Pressure  
Sea Level Pressure 30.36 in    
Wind  
Wind Speed 4 mph (ESE)    
Max Wind Speed 6 mph    
Max Gust Speed -    
Visibility 5 miles    
Events Fog    
Averages and records for this station are not official NWS values.
T = Trace of Precipitation, MM = Missing Value Source: NWS Daily Summary

Daily Weather History Graph

Daily Weather History Graph

Search for Another Location

Airport or City:

Trip Planner

Search our weather history database for the weather conditions in past years. The results will help you decide how hot, cold, wet, or windy it might be!

Date:

Astronomy

Jan. 20, 2013 Rise Set
Actual Time 7:52 AM PST 4:51 PM PST
Civil Twilight 7:17 AM PST 5:26 PM PST
Nautical Twilight 6:39 AM PST 6:04 PM PST
Astronomical Twilight 6:02 AM PST 6:42 PM PST
Moon 11:57 AM PST (1/20) 2:27 AM PST (1/20)
Length of Visible Light 10h 08m
Length of Day
8h 59m
Waxing Gibbous, 67% of the Moon is Illuminated
Jan 20
Waxing Gibbous
Jan 26
Full
Feb 3
Last Quarter
Feb 9
New
Feb 17
First Quarter

Hourly Weather History & Observations

Time (PST) Temp. Windchill Dew Point Humidity Pressure Visibility Wind Dir Wind Speed Gust Speed Precip Events Conditions
12:56 AM 33.1 °F 30.0 °F 30.0 °F 89% 30.40 in 0.1 mi South 3.5 mph - N/A Fog Fog
1:56 AM 35.1 °F 32.2 °F 32.0 °F 89% 30.42 in 0.1 mi East 3.5 mph - N/A Fog Fog
2:56 AM 35.1 °F 31.0 °F 33.1 °F 92% 30.42 in 0.1 mi ESE 4.6 mph - 0.01 in Fog Fog
3:56 AM 32.0 °F 26.4 °F 30.0 °F 92% 30.41 in 0.1 mi ESE 5.8 mph - N/A Fog Fog
4:56 AM 30.0 °F 25.2 °F 28.0 °F 92% 30.40 in 0.1 mi ESE 4.6 mph - N/A Fog Light Freezing Fog
5:56 AM 28.9 °F 23.9 °F 26.1 °F 89% 30.40 in 0.1 mi East 4.6 mph - N/A Fog Light Freezing Fog
6:56 AM 28.0 °F 22.8 °F 25.0 °F 88% 30.40 in 0.1 mi ESE 4.6 mph - N/A Fog Light Freezing Fog
7:56 AM 27.0 °F 20.5 °F 25.0 °F 92% 30.40 in 0.8 mi ESE 5.8 mph - N/A   Mostly Cloudy
8:56 AM 28.9 °F 23.9 °F 27.0 °F 92% 30.40 in 0.8 mi East 4.6 mph - N/A   Mostly Cloudy
9:56 AM 33.1 °F 28.7 °F 33.1 °F 100% 30.42 in 3.0 mi Variable 4.6 mph - N/A   Mostly Cloudy
10:41 AM 39.2 °F - 39.2 °F 100% 30.40 in 6.0 mi Calm Calm - N/A   Mostly Cloudy
10:56 AM 39.9 °F - 39.0 °F 97% 30.41 in 9.0 mi Calm Calm - N/A   Mostly Cloudy
11:56 AM 42.1 °F - 39.9 °F 92% 30.39 in 10.0 mi Calm Calm - N/A   Mostly Cloudy
12:56 PM 43.0 °F - 39.9 °F 89% 30.36 in 10.0 mi Calm Calm - N/A   Scattered Clouds
1:56 PM 44.1 °F 40.8 °F 37.9 °F 79% 30.34 in 10.0 mi NW 5.8 mph - N/A   Scattered Clouds
2:56 PM 44.1 °F 40.8 °F 37.0 °F 76% 30.33 in 10.0 mi NNW 5.8 mph - N/A   Scattered Clouds
3:56 PM 43.0 °F 40.3 °F 36.0 °F 76% 30.33 in 10.0 mi NNW 4.6 mph - N/A   Scattered Clouds
4:56 PM 41.0 °F 39.0 °F 35.1 °F 79% 30.32 in 10.0 mi North 3.5 mph - N/A   Scattered Clouds
5:56 PM 36.0 °F - 32.0 °F 86% 30.31 in 10.0 mi Calm Calm - N/A   Scattered Clouds
6:56 PM 33.1 °F 30.0 °F 30.0 °F 89% 30.31 in 8.0 mi SE 3.5 mph - N/A   Scattered Clouds
7:56 PM 32.0 °F 28.7 °F 28.9 °F 88% 30.30 in 8.0 mi SE 3.5 mph - N/A Fog Patches of Fog
8:56 PM 30.9 °F - 28.0 °F 89% 30.31 in 8.0 mi Calm Calm - N/A Fog Patches of Fog
9:37 PM 26.6 °F 21.2 °F 24.8 °F 93% 30.29 in 0.5 mi ESE 4.6 mph - N/A Fog Light Freezing Fog
9:56 PM 28.9 °F 25.2 °F 26.1 °F 89% 30.31 in 0.5 mi ESE 3.5 mph - N/A Fog Light Freezing Fog
10:56 PM 30.9 °F 26.2 °F 28.0 °F 89% 30.30 in 2.0 mi ESE 4.6 mph - N/A Fog Patches of Fog
11:56 PM 28.0 °F 24.2 °F 26.1 °F 92% 30.30 in 2.0 mi SE 3.5 mph - N/A Fog Patches of Fog